DW1637 Weather Reports


time (UTC)temp
C
wind
direction
speed
KPH
gust
KPH
rain 1hr
cm
rain 24hr
cm
rain mn
cm
humidity
%
barometer
mb
20260510000204 22 142 4.8 14.5 0.00 2.67 2.67 84 1009.3
20260509235703 22 131 4.8 24.1 0.00 2.67 2.67 84 1009.1
20260509235204 22 115 11.3 22.5 0.00 2.67 2.67 83 1009.2
20260509234704 22 130 12.9 24.1 0.00 2.67 2.67 84 1009.1
20260509234204 22 165 11.3 24.1 0.00 2.67 2.67 84 1009.1
20260509233204 23 114 8.0 24.1 0.00 2.67 2.67 85 1009.2
20260509232703 23 155 8.0 25.7 0.00 2.67 2.67 83 1009.2
20260509232204 24 145 12.9 24.1 0.00 2.67 2.67 81 1009.1
20260509231704 25 111 9.7 22.5 0.00 2.67 2.67 79 1009.0
20260509231204 26 140 4.8 27.4 0.00 2.67 2.67 79 1008.8
20260509230703 27 103 12.9 22.5 0.00 2.67 2.67 78 1008.6
20260509230204 27 116 6.4 14.5 0.00 2.67 2.67 78 1008.6
20260509225704 27 70 8.0 14.5 0.00 2.67 2.67 78 1008.5
20260509225205 27 48 3.2 19.3 0.00 2.67 2.67 78 1008.5
20260509224704 27 65 6.4 12.9 0.00 2.67 2.67 79 1008.5
20260509222204 26 32 6.4 11.3 0.00 2.67 2.67 77 1008.2
20260509221205 26 4 8.0 11.3 0.00 2.67 2.67 78 1008.1
20260509220704 26 352 8.0 12.9 0.00 2.67 2.67 79 1008.0
20260509220204 26 60 6.4 11.3 0.00 2.67 2.67 80 1007.8
20260509215703 26 358 4.8 11.3 0.00 2.67 2.67 81 1007.9
20260509215204 26 13 4.8 9.7 0.00 2.67 2.67 80 1008.0
20260509214204 26 122 1.6 9.7 0.00 2.67 2.67 81 1008.0
20260509213703 26 17 4.8 12.9 0.00 2.67 2.67 80 1008.1
20260509212204 26 24 3.2 11.3 0.00 2.67 2.67 80 1008.2
20260509211704 26 42 6.4 9.7 0.00 2.67 2.67 80 1008.3
20260509211204 26 89 3.2 12.9 0.00 2.67 2.67 80 1008.3
20260509210704 26 35 8.0 11.3 0.00 2.67 2.67 80 1008.5
20260509210203 26 7 1.6 8.0 0.00 2.67 2.67 81 1008.6
20260509205704 26 102 3.2 11.3 0.00 2.67 2.67 81 1008.5
20260509205204 26 59 4.8 8.0 0.00 2.67 2.67 81 1008.5
20260509204703 26 76 4.8 11.3 0.00 2.67 2.67 81 1008.6
20260509203703 26 85 3.2 9.7 0.00 2.67 2.67 82 1008.7
20260509203204 25 70 3.2 4.8 0.00 2.67 2.67 84 1008.9
20260509202703 25 76 4.8 8.0 0.00 2.67 2.67 83 1009.0
20260509201204 26 42 4.8 9.7 0.00 2.67 2.67 82 1008.9
20260509200704 26 356 4.8 8.0 0.00 2.67 2.67 82 1008.9
20260509200204 26 21 3.2 4.8 0.00 2.67 2.67 82 1009.0
20260509195704 25 138 0.0 4.8 0.00 2.67 2.67 84 1009.0
20260509195203 25 143 3.2 8.0 0.00 2.67 2.67 85 1009.0
20260509194704 25 273 3.2 4.8 0.00 2.67 2.67 83 1009.0
20260509194203 25 5 4.8 9.7 0.00 2.67 2.67 83 1009.1
20260509193703 25 49 1.6 4.8 0.00 2.67 2.67 85 1009.1
20260509193204 25 89 1.6 4.8 0.00 2.67 2.67 83 1009.2
20260509192703 25 25 1.6 4.8 0.00 2.67 2.67 84 1009.2
20260509192203 25 52 1.6 4.8 0.00 2.67 2.67 85 1009.2
20260509191704 25 40 1.6 4.8 0.00 2.67 2.67 86 1009.3
20260509191204 25 59 3.2 4.8 0.00 2.67 2.67 86 1009.4
20260509190704 25 234 0.0 8.0 0.00 2.67 2.67 86 1009.2
20260509190203 25 299 3.2 8.0 0.00 2.67 2.67 86 1009.4
20260509185204 24 13 1.6 4.8 0.00 2.67 2.67 86 1009.5
20260509184704 23 53 0.0 3.2 0.00 2.67 2.67 89 1009.4
20260509184204 23 30 0.0 3.2 0.00 2.67 2.67 89 1009.5
20260509183704 23 30 1.6 1.6 0.00 2.67 2.67 90 1009.8
20260509183203 23 30 0.0 3.2 0.00 2.67 2.67 90 1009.8
20260509182704 23 61 1.6 8.0 0.00 2.67 2.67 90 1009.9
20260509182203 22 133 3.2 8.0 0.00 2.67 2.67 91 1010.0
20260509181704 22 119 0.0 3.2 0.00 2.67 2.67 91 1010.0
20260509181204 22 137 3.2 8.0 0.00 2.67 2.67 90 1009.9
20260509180703 22 156 1.6 3.2 0.00 2.67 2.67 90 1010.1
20260509180204 22 156 0.0 4.8 0.00 2.67 2.67 90 1010.1
20260509175704 22 162 1.6 4.8 0.00 2.67 2.67 90 1010.2
20260509175203 22 213 0.0 4.8 0.00 2.67 2.67 90 1010.3
20260509174704 22 207 3.2 4.8 0.00 2.67 2.67 91 1010.3
20260509174204 22 76 1.6 4.8 0.00 2.67 2.67 90 1010.4
20260509173704 22 137 1.6 4.8 0.00 2.67 2.67 91 1010.4
20260509173204 22 126 3.2 4.8 0.00 2.67 2.67 91 1010.5
20260509172704 22 145 1.6 3.2 0.00 2.67 2.67 91 1010.4
20260509172204 22 145 4.8 11.3 0.00 2.67 2.67 91 1010.4
20260509171703 22 132 1.6 8.0 0.00 2.67 2.67 92 1010.4
20260509170703 22 116 3.2 8.0 0.00 2.67 2.67 93 1010.4
20260509165705 21 88 3.2 8.0 0.00 2.67 2.67 93 1010.6
20260509165203 21 126 1.6 8.0 0.00 2.67 2.67 94 1010.6
20260509164703 21 123 1.6 4.8 0.00 2.67 2.67 94 1010.6
20260509164204 21 121 1.6 3.2 0.00 2.67 2.67 94 1010.5
20260509163703 21 121 1.6 3.2 0.00 2.67 2.67 94 1010.5
20260509160203 21 140 1.6 4.8 0.00 2.67 2.67 95 1010.2
20260509155704 21 154 3.2 8.0 0.00 2.67 2.67 95 1010.4
20260509155205 21 112 1.6 3.2 0.00 2.67 2.67 95 1010.3
20260509154703 20 112 0.0 1.6 0.00 2.67 2.67 95 1010.3
20260509153204 21 112 0.0 4.8 0.00 2.67 2.67 95 1010.0
20260509152703 21 106 3.2 4.8 0.00 2.67 2.67 96 1009.9
20260509152203 20 128 1.6 4.8 0.00 2.67 2.67 96 1009.8
20260509151704 20 112 3.2 8.0 0.00 2.67 2.67 96 1009.8
20260509151204 20 82 1.6 4.8 0.00 2.67 2.67 96 1009.9
20260509150703 20 70 3.2 4.8 0.00 2.67 2.67 96 1009.9
20260509150204 20 65 1.6 4.8 0.00 2.67 2.67 96 1010.0
20260509145704 20 136 1.6 4.8 0.00 2.67 2.67 96 1010.1
20260509145204 20 141 1.6 4.8 0.00 2.67 2.67 96 1010.2
20260509144704 20 111 1.6 8.0 0.00 2.67 2.67 96 1010.3
20260509144204 20 69 4.8 8.0 0.00 2.67 2.67 96 1010.2
20260509143704 20 71 1.6 4.8 0.00 2.67 2.67 96 1010.2
20260509143204 20 112 3.2 4.8 0.00 2.67 2.67 96 1010.2
20260509142704 20 95 1.6 8.0 0.00 2.67 2.67 96 1010.2
20260509142204 19 138 1.6 3.2 0.00 2.67 2.67 96 1010.3
20260509141704 19 138 1.6 3.2 0.00 2.67 2.67 96 1010.4
20260509140704 19 80 0.0 4.8 0.00 2.67 2.67 96 1010.4
20260509135204 19 43 1.6 3.2 0.00 2.67 2.67 96 1010.5
20260509134704 19 43 1.6 3.2 0.00 2.67 2.67 96 1010.6
20260509134204 19 43 0.0 3.2 0.00 2.67 2.67 96 1010.6
20260509133704 19 43 0.0 3.2 0.00 2.67 2.67 96 1010.5
20260509133204 19 43 0.0 1.6 0.00 2.67 2.67 96 1010.5
20260509132703 19 43 0.0 3.2 0.00 2.67 2.67 96 1010.4
20260509132205 19 43 1.6 3.2 0.00 2.67 2.67 96 1010.4
20260509131704 19 43 0.0 3.2 0.00 2.67 2.67 96 1010.2
20260509131204 19 43 1.6 3.2 0.00 2.67 2.67 96 1010.1
20260509130704 18 97 1.6 3.2 0.00 2.67 2.67 96 1010.1
20260509130203 18 163 3.2 3.2 0.00 2.67 2.67 96 1010.0
20260509125703 18 142 3.2 4.8 0.00 2.67 2.67 96 1010.1
20260509125204 18 151 4.8 4.8 0.00 2.67 2.67 96 1010.1
20260509124703 18 217 3.2 4.8 0.00 2.67 2.67 96 1010.0
20260509124204 18 152 1.6 4.8 0.00 2.67 2.67 96 1010.1
20260509123704 18 161 1.6 4.8 0.00 2.67 2.67 96 1010.1
20260509123204 18 125 1.6 4.8 0.00 2.67 2.67 96 1010.0
20260509122703 18 88 1.6 4.8 0.00 2.67 2.67 96 1010.0
20260509122204 18 51 1.6 4.8 0.00 2.67 2.67 96 1010.0
20260509121204 18 5 0.0 1.6 0.00 2.67 2.67 96 1009.9
20260509120205 18 5 1.6 3.2 0.00 2.67 2.67 96 1009.8
20260509115703 18 5 0.0 1.6 0.00 2.67 2.67 96 1009.8
20260509115204 18 5 1.6 3.2 0.00 2.67 2.67 96 1009.8
20260509114704 18 5 1.6 3.2 0.00 2.67 2.67 96 1009.8
20260509114204 18 159 1.6 3.2 0.00 2.67 2.67 96 1009.7
20260509113204 18 159 0.0 1.6 0.00 2.67 2.67 96 1009.7
20260509112204 18 16 1.6 3.2 0.00 2.67 2.67 96 1009.6
20260509111704 18 16 0.0 1.6 0.00 2.67 2.67 96 1009.5
20260509111204 18 16 1.6 4.8 0.00 2.67 2.67 96 1009.5
20260509105703 18 16 1.6 4.8 0.00 2.67 2.67 96 1009.2
20260509105205 18 16 0.0 1.6 0.00 2.67 2.67 96 1009.2
20260509104704 18 16 0.0 0.0 0.00 2.67 2.67 96 1009.2
20260509104204 18 16 0.0 1.6 0.00 2.67 2.67 96 1009.0
20260509103704 18 16 0.0 0.0 0.00 2.67 2.67 96 1008.9
20260509103204 18 16 0.0 0.0 0.00 2.67 2.67 96 1008.9
20260509102704 18 16 0.0 0.0 0.00 2.67 2.67 96 1009.0
20260509102205 18 16 0.0 0.0 0.00 2.67 2.67 96 1009.0
20260509101704 18 16 0.0 1.6 0.00 2.67 2.67 96 1009.1
20260509100703 18 16 0.0 1.6 0.00 2.67 2.67 96 1009.2
20260509100204 18 16 1.6 1.6 0.00 2.67 2.67 96 1009.1
20260509095704 18 16 0.0 1.6 0.00 2.67 2.67 96 1009.1
20260509095204 18 16 1.6 3.2 0.00 2.67 2.67 96 1009.1
20260509094704 18 16 0.0 3.2 0.00 2.67 2.67 95 1009.1
20260509094203 18 16 0.0 3.2 0.00 2.67 2.67 95 1009.0
20260509093204 18 16 1.6 3.2 0.00 2.67 2.67 96 1008.9
20260509092704 18 16 1.6 3.2 0.00 2.67 2.67 95 1009.1
20260509092204 18 16 0.0 3.2 0.00 2.67 2.67 95 1009.1
20260509091704 18 16 0.0 1.6 0.00 2.67 2.67 95 1009.2
20260509091204 18 16 0.0 1.6 0.00 2.67 2.67 95 1008.9
20260509090703 18 16 1.6 4.8 0.00 2.67 2.67 95 1008.9
20260509090203 18 191 1.6 3.2 0.00 2.67 2.67 95 1008.8
20260509085704 18 187 1.6 4.8 0.00 2.67 2.67 95 1009.0
20260509085204 18 165 0.0 3.2 0.03 2.67 2.67 95 1008.8
20260509084704 18 165 1.6 3.2 0.03 2.67 2.67 95 1009.0
20260509083704 18 79 3.2 4.8 0.05 2.67 2.67 95 1008.7
20260509083204 18 78 0.0 4.8 0.08 2.67 2.67 95 1008.9
20260509082704 18 52 1.6 4.8 0.15 2.67 2.67 95 1009.0
20260509082204 18 112 1.6 3.2 0.23 2.67 2.67 95 1009.2
20260509081204 18 349 0.0 1.6 0.48 2.67 2.67 95 1009.6
20260509080703 18 349 3.2 4.8 0.79 2.67 2.67 95 1009.7
20260509080204 18 164 4.8 9.7 1.22 2.67 2.67 94 1008.8
20260509075704 18 135 4.8 9.7 1.73 2.67 2.67 94 1008.8
20260509075204 18 138 3.2 8.0 2.08 2.64 2.64 94 1008.7
20260509074204 18 163 3.2 11.3 2.62 2.62 2.62 94 1008.5
20260509073704 18 155 4.8 9.7 2.62 2.62 2.62 94 1009.0
20260509073204 18 236 4.8 14.5 2.59 2.59 2.59 94 1009.4
20260509072704 18 158 3.2 14.5 2.51 2.51 2.51 93 1008.5
20260509072204 18 241 3.2 14.5 2.44 2.44 2.44 93 1008.8
20260509071705 18 151 9.7 20.9 2.39 2.39 2.39 93 1008.6
20260509071204 19 99 8.0 11.3 2.18 2.18 2.18 92 1009.3
20260509070704 19 138 1.6 9.7 1.88 1.88 1.88 92 1010.5
20260509070204 20 349 4.8 9.7 1.45 1.45 1.45 92 1011.8
20260509065704 20 270 1.6 8.0 0.94 0.94 0.94 91 1011.4
20260509064705 20 306 8.0 24.1 0.25 0.25 0.25 89 1011.4
20260509064204 21 260 8.0 20.9 0.00 0.00 0.00 91 1010.9
20260509063704 21 308 1.6 4.8 0.00 0.00 0.00 91 1010.6
20260509063204 21 230 0.0 0.0 0.00 0.00 0.00 90 1009.8
20260509062704 21 230 0.0 0.0 0.00 0.00 0.00 90 1010.3
20260509062203 21 152 0.0 1.6 0.00 0.00 0.00 90 1010.5
20260509061703 21 245 0.0 1.6 0.00 0.00 0.00 90 1010.4
20260509061203 21 248 1.6 4.8 0.00 0.00 0.00 90 1010.3
20260509060703 21 289 1.6 4.8 0.00 0.00 0.00 90 1009.9
20260509055704 21 290 0.0 1.6 0.00 0.00 0.00 90 1009.9
20260509055204 21 290 1.6 3.2 0.00 0.00 0.00 90 1010.2
20260509054704 21 290 0.0 0.0 0.00 0.00 0.00 89 1010.2
20260509054204 21 290 0.0 3.2 0.00 0.00 0.00 90 1010.4
20260509053704 21 290 3.2 4.8 0.00 0.00 0.00 89 1010.4
20260509053204 21 217 0.0 3.2 0.00 0.00 0.00 89 1009.9
20260509052204 21 171 1.6 4.8 0.00 0.00 0.00 89 1010.0
20260509051704 21 138 1.6 8.0 0.00 0.00 0.00 89 1010.1
20260509051204 21 146 1.6 4.8 0.00 0.00 0.00 89 1010.1
20260509050704 21 40 0.0 3.2 0.00 0.00 0.00 89 1010.2
20260509050204 21 40 1.6 3.2 0.00 0.00 0.00 89 1010.2
20260509045703 21 40 1.6 3.2 0.00 0.00 0.00 89 1010.3
20260509045204 21 59 1.6 3.2 0.00 0.00 0.00 89 1010.3
20260509044704 21 154 1.6 3.2 0.00 0.00 0.00 89 1010.2
20260509044203 21 154 0.0 3.2 0.00 0.00 0.00 89 1010.4
20260509043704 21 154 1.6 3.2 0.00 0.00 0.00 89 1010.4
20260509043204 21 154 0.0 1.6 0.00 0.00 0.00 88 1010.5
20260509042704 21 154 1.6 4.8 0.00 0.00 0.00 88 1010.6
20260509042205 21 117 0.0 3.2 0.00 0.00 0.00 88 1010.5
20260509041204 21 139 0.0 8.0 0.00 0.00 0.00 88 1010.6
20260509040704 21 133 1.6 8.0 0.00 0.00 0.00 88 1010.6
20260509040204 21 146 4.8 8.0 0.00 0.00 0.00 87 1010.6
20260509035703 21 141 4.8 4.8 0.00 0.00 0.00 87 1010.6
20260509035204 21 136 1.6 4.8 0.00 0.00 0.00 87 1010.4
20260509034703 21 128 3.2 4.8 0.00 0.00 0.00 87 1010.4
20260509034204 21 150 3.2 4.8 0.00 0.00 0.00 87 1010.3
20260509033703 21 133 3.2 8.0 0.00 0.00 0.00 87 1010.2
20260509033204 21 161 4.8 11.3 0.00 0.00 0.00 87 1010.1
20260509032704 21 159 4.8 11.3 0.00 0.00 0.00 87 1010.0
20260509032204 21 165 3.2 9.7 0.00 0.00 0.00 87 1010.1
20260509031704 21 138 1.6 11.3 0.00 0.00 0.00 86 1010.1
20260509031203 21 148 3.2 9.7 0.00 0.00 0.00 86 1010.1
20260509030704 21 152 3.2 12.9 0.00 0.00 0.00 87 1010.0
20260509030203 21 178 4.8 12.9 0.00 0.00 0.00 87 1010.0
20260509025704 21 156 4.8 11.3 0.00 0.00 0.00 86 1009.8
20260509025204 21 135 8.0 12.9 0.00 0.00 0.00 87 1009.7
20260509024704 21 138 3.2 4.8 0.00 0.00 0.00 86 1009.6
20260509024204 21 124 3.2 11.3 0.00 0.00 0.00 86 1009.5
20260509023704 21 86 3.2 9.7 0.00 0.00 0.00 86 1009.3
20260509023204 21 149 4.8 12.9 0.00 0.00 0.00 86 1009.1
20260509022703 21 155 3.2 8.0 0.00 0.00 0.00 86 1008.9
20260509021204 21 119 3.2 9.7 0.00 0.00 0.00 86 1008.7
20260509020704 21 148 4.8 8.0 0.00 0.00 0.00 86 1008.8
20260509020204 21 100 1.6 9.7 0.00 0.00 0.00 86 1008.7
20260509015704 21 140 1.6 8.0 0.00 0.00 0.00 86 1008.8
20260509015203 21 149 3.2 4.8 0.00 0.00 0.00 86 1008.6
20260509014705 21 174 1.6 8.0 0.00 0.00 0.00 86 1008.5
20260509013704 21 186 3.2 8.0 0.00 0.00 0.00 86 1008.4
20260509013204 21 133 3.2 9.7 0.00 0.00 0.00 86 1008.4
20260509012704 21 131 3.2 4.8 0.00 0.00 0.00 85 1008.6
20260509012204 21 75 8.0 16.1 0.00 0.00 0.00 85 1008.4
20260509011704 21 115 3.2 14.5 0.00 0.00 0.00 84 1008.2
20260509010703 21 106 4.8 19.3 0.00 0.00 0.00 83 1008.0
20260509005704 22 160 4.8 12.9 0.00 0.00 0.00 81 1007.8
20260509004704 22 154 9.7 19.3 0.00 0.00 0.00 78 1007.6
20260509004204 22 117 9.7 19.3 0.00 0.00 0.00 77 1007.5
20260509003705 22 150 8.0 19.3 0.00 0.00 0.00 76 1007.6
20260509003204 22 119 9.7 19.3 0.00 0.00 0.00 74 1007.6
20260509002704 23 150 6.4 19.3 0.00 0.00 0.00 73 1008.3
20260509002204 23 147 3.2 9.7 0.00 0.00 0.00 72 1008.6
20260509001704 23 141 3.2 19.3 0.00 0.00 0.00 71 1008.4
20260509001204 23 143 4.8 14.5 0.00 0.00 0.00 71 1008.1
20260509000704 23 103 8.0 14.5 0.00 0.00 0.00 70 1008.1